Tracking 31027 objects as of 19-Jul-2025
HD Live streaming from Space Station
objects crossing your sky now

COSMOS 839 DEB

Track COSMOS 839 DEB now!
10-day predictions


NORAD ID: 17838
Int'l Code: 1976-067BK
Perigee: 990.2 km
Apogee: 1,984.7 km
Inclination: 66.0 °
Period: 115.5 minutes
Semi major axis: 7858 km
RCS: 0.0168 m2 (small)
Launch date: July 8, 1976
Source: Commonwealth of Independent States (former USSR) (CIS)
Launch site: PLESETSK MISSILE AND SPACE COMPLEX (PKMTR)

Note: This is SATELLITE DEBRIS
Your satellite tracking list
STARLINK-6351
Track 1 satellite(s)




NASA's NSSDC Master Catalog

Two Line Element Set (TLE):
1 17838U 76067BK  25194.54547501 -.00000190  00000-0 -44877-3 0  9990
2 17838  65.9794  19.7013 0632790 340.7403  46.7626 12.46223615523348
Source of the keplerian elements: AFSPC